Погода в Дизфуле

Иран     32°22′53″N   48°24′26″E
темп.,
°C
ветер,
м/с
пор.,
м/с
влажн.,
%
обл.,
%
осадки,
мм/ч
давл.,
гПа
погр.,
м
22 января, сб
сб2200:30+5всв11460 0.0 102510
03:30+4в00460 0.0 102510
06:30+3с11450 0.0 102410
09:30+7ссз11300 0.0 1024160
12:30+10зюз21250 0.0 1023564
15:30+11юз11260 0.0 1021701
18:30+9юз11390 0.0 102110
21:30+7всв00440 0.0 102210
23 января, вс
вс2300:30+6в00440 0.0 102210
03:30+5ссв11440 0.0 102110
06:30+5с11435 0.0 102010
09:30+9ссв11300 0.0 1021122
12:30+13зюз11230 0.0 1020523
15:30+14ююз11240 0.0 1019623
18:30+10зсз11400 0.0 101910
21:30+9с01390 0.0 101910
24 января, пн
пн2400:30+9сз11390 0.0 102010
03:30+8ссв11350 0.0 101910
06:30+8ссв22300 0.0 101910
09:30+13с22220 0.0 102082
12:30+17з10150 0.0 1019500
15:30+18юз11160 0.0 1018596
18:30+13з22310 0.0 101910
21:30+12ссз22310 0.0 102010
25 января, вт
вт2500:30+12с22300 0.0 102010
03:30+11с22295 0.0 102010
06:30+11с223767 0.0 102010
09:30+15ссв22350 0.0 102193
12:30+18з11270 0.0 1019551
15:30+19з21280 0.0 1017668
18:30+15з22400 0.0 101812
21:30+13зсз00440 0.0 101911
26 января, ср
ср2600:30+12в11460 0.0 101910
03:30+12св11460 0.0 101810
06:30+11ссв22390 0.0 101810
09:30+15ссв23310 0.0 101898
12:30+19ююв23233 0.0 1017722
15:30+19юв3428100 0.0 1014530
18:30+17юв3334100 0.0 101421
21:30+16юв2243100 0.0 101519